Regional Weather Roundup
Issued by NWS

Home | Current Version | Previous Version | Text Only | Print | Product List | Glossary Off
Versions: 1 2 3 4 5 6 7 8 9 10 11 12 13 14 15 16 17 18 19 20 21 22 23 24 25 26 27 28 29 30 31 32 33 34 35 36 37 38 39 40 41 42 43 44 45 46 47 48 49 50

000
ASUS43 KDMX 251706
RWRIA

WEATHER ROUNDUP FOR IOWA
NATIONAL WEATHER SERVICE DES MOINES IA
1100 AM CST SAT FEB 25 2017

NOTE: "FAIR" INDICATES FEW OR NO CLOUDS BELOW 12,000 FEET WITH NO
SIGNIFICANT WEATHER AND/OR OBSTRUCTIONS TO VISIBILITY.

* - THESE STATIONS ARE NOT NWS STATIONS...THUS NOT UNDER NWS
QUALITY CONTROL.  THEY ALSO DO NOT REPORT WEATHER SUCH
AS PRECIPITATION OR FOG.

IAZ001>003-012>014-020>022-031>034-043>046-251800-
   NORTHWEST IOWA

CITY           SKY/WX    TMP DP  RH WIND       PRES   REMARKS
CARROLL *      SUNNY     23  14  68 W12       30.09R WCI  12
CHEROKEE *     PTSUNNY   20  15  81 SW9       30.07S WCI  10
DENISON *      CLOUDY    21  16  79 W8        30.08S WCI  12
LE MARS *      CLOUDY    23  16  74 SW6       30.08S WCI  16
SHELDON *      CLOUDY    21  19  93 W7        30.02F WCI  13
SIOUX CITY     CLOUDY    23  16  74 SW5       30.10S WCI  17
SPENCER        SUNNY     21  14  74 W12       30.03F WCI   9
STORM LAKE *   MOSUNNY   18  14  86 W12       30.05R FOG     WCI   5
$$

IAZ055>058-069>071-079>083-090>094-251800-
   SOUTHWEST IOWA

CITY           SKY/WX    TMP DP  RH WIND       PRES   REMARKS
ATLANTIC *     CLOUDY    23  14  68 VRB6      30.12S WCI  16
AUDUBON *      SUNNY     25  16  68 W5        30.10R WCI  19
CLARINDA *     MOSUNNY   25  16  68 W7        30.17S WCI  17
COUNCIL BLFS * MOSUNNY   25  16  68 W8        30.12S WCI  16
CRESTON *      SUNNY     25  12  58 NW10      30.11S WCI  15
HARLAN  *      CLOUDY    21  18  86 N3        30.13F
LAMONI         SUNNY     26  15  63 NW14      30.10R WCI  14
RED OAK *      SUNNY     25  16  68 NW6       30.14S WCI  18
SHENANDOAH *   CLOUDY    25  16  68 W6        30.16S WCI  18
$$

IAZ047>049-059>061-072>074-084-251800-
   CENTRAL IOWA

CITY           SKY/WX    TMP DP  RH WIND       PRES   REMARKS
AMES           SUNNY     22  14  71 NW13      30.07R WCI  10
ANKENY *       SUNNY     23  12  63 NW12      30.09S WCI  12
BOONE *        SUNNY     21  12  68 NW9       30.05R WCI  11
CHARITON *     SUNNY     23  12  63 NW14G20   30.08R WCI  11
DES MOINES     PTSUNNY   25  11  55 NW13      30.09R WCI  14
GRINNELL*      SUNNY     22  13  69 NW17      30.05R WCI   7
KNOXVILLE *    SUNNY     25  10  54 W16       30.07R WCI  12
MARSHALLTOWN   SUNNY     21  12  68 NW21      30.03R WCI   5
NEWTON *       SUNNY     21  10  63 NW15      30.05R WCI   8
PELLA *        SUNNY     23  11  60 NW15      30.08R WCI  10
PERRY *          N/A     23  13  64 NW10      30.09S WCI  13
$$

IAZ004>006-015-016-023>025-035-036-251800-
   NORTH CENTRAL IOWA

CITY           SKY/WX    TMP DP  RH WIND       PRES   REMARKS
ALGONA *       FLURRIES  21  14  73 NW10      30.02S WCI  10
CLARION *      SUNNY     19  12  73 NW12      30.03S WCI   7
ESTHERVILLE    SUNNY     20  12  71 W13       30.01S WCI   7
FORT DODGE *   SUNNY     19  12  73 NW6       30.06S WCI  11
MASON CITY     SUNNY     18  11  74 NW16      30.01R WCI   3
FOREST CITY *    N/A     21  12  68 NW13      30.00R WCI   9
WEBSTER CITY * SUNNY     19  12  73 NW15      30.03S WCI   5
IOWA FALLS *     N/A     21  13  69 NW17      30.03S WCI   7
$$

IAZ007>011-017>019-026>030-037>042-050>054-066-251800-
   NORTHEAST IOWA

CITY           SKY/WX    TMP DP  RH WIND       PRES   REMARKS
CEDAR RAPIDS   SUNNY     20  13  74 NW23      29.98R WCI   3
CHARLES CITY * SUNNY     18   9  68 NW20G25   29.98S WCI   1
CLINTON *      MOSUNNY   23  15  71 NW26      29.94R WCI   6
DECORAH *      SUNNY     18   7  62 NW16G26   29.92R WCI   3
DUBUQUE        MOSUNNY   19  12  74 W15       29.91R WCI   5
MONTICELLO *   PTSUNNY   21  12  68 NW22G28   29.95R WCI   5
OELWEIN *      SUNNY     19  12  73 NW23      29.97R WCI   2
WATERLOO       SUNNY     20  10  65 NW16G22   30.01R WCI   6
$$

IAZ064-065-067-068-078-251800-
   EAST CENTRAL IOWA

CITY           SKY/WX    TMP DP  RH WIND       PRES   REMARKS
DAVENPORT      FLURRIES  22  14  71 NW22      29.96S WCI   6
IOWA CITY      MOSUNNY   23  13  65 NW16G25   30.03R WCI  10
MUSCATINE *    PTSUNNY   25  14  63 NW20      30.02R WCI  11
QUAD CITIES    PTSUNNY   24  13  62 W22G33    29.97R WCI   9
$$

IAZ062-063-075>077-085>089-095>099-251800-
   SOUTHEAST IOWA

CITY           SKY/WX    TMP DP  RH WIND       PRES   REMARKS
BURLINGTON     MOSUNNY   25  15  66 NW17G24   30.02R WCI  12
FAIRFIELD *    SUNNY     23  10  58 W20G26    30.04R WCI   8
KEOKUK *       MOSUNNY   27  14  59 NW14G23   30.05R WCI  15
CENTERVILLE *    N/A     27  14  59 W14       30.09R WCI  15
OTTUMWA        SUNNY     23  10  57 NW17G25   30.05R WCI   9
WASHINGTON *   MOSUNNY   23  14  68 W22       30.04R WCI   8
$$

ABBREVIATIONS USED IN REMARKS
   TC - TEMPERATURES IN CELSIUS
  WCI - WIND CHILL INDEX
   HX - HEAT INDEX
  VSB - VISIBILITY
$$




USA.gov is the U.S. government's official web portal to all federal, state and local government web resources and services.